Regional Weather Roundup
Issued by NWS

Home | Current Version | Previous Version | Graphics & Text | Print | Product List | Glossary Off
Versions: 1 2 3 4 5 6 7 8 9 10 11 12 13 14 15 16 17 18 19 20 21 22 23 24 25 26 27 28 29 30 31 32 33 34 35 36 37 38 39 40 41 42 43 44 45 46 47 48 49 50

000
ASUS43 KMPX 240101
RWRMN
WEATHER ROUNDUP FOR MINNESOTA
NATIONAL WEATHER SERVICE TWIN CITIES/CHANHASSEN MN
800 PM CDT THU OCT 23 2014


NOTE: "FAIR" INDICATES FEW OR NO CLOUDS BELOW 12,000 FEET WITH NO
SIGNIFICANT WEATHER AND/OR OBSTRUCTIONS TO VISIBILITY. N/A MEANS
CURRENT SKY AND/OR WEATHER CONDITIONS ARE NOT AVAILABLE.

MNZ060>063-068>070-240200-
   Twin Cities Metro

CITY           SKY/WX    TMP DP  RH WIND       PRES   REMARKS
TWIN CITIES    CLEAR     57  51  80 SE9       29.98R
ST PAUL        CLEAR     54  51  90 SE7       29.99R
CRYSTAL        CLEAR     56  47  71 SE8       29.96R
BLAINE         CLEAR     55  48  76 SE7       29.97R
LAKEVILLE      CLEAR     52  48  87 SE3       29.98S
EDEN PRAIRIE   CLEAR     56  42  59 SE7       29.96S
SOUTH ST PAUL  CLEAR     55  50  86 SE5       29.98S
LAKE ELMO      FAIR      52  50  93 SE5       30.00R
$$
MNZ001>005-007-008-013>017-022>024-027-028-240200-
   Northwest Minnesota

CITY           SKY/WX    TMP DP  RH WIND       PRES   REMARKS
BEMIDJI        CLEAR     55  34  45 S6        29.87R
HALLOCK        MOCLDY    50  37  62 S7        29.77F
ROSEAU         CLEAR     50  41  71 S5        29.80F
WARROAD        CLEAR     52  43  71 S5        29.81S
THIEF RVR FALL CLEAR     55  39  54 SE7       29.81F
CROOKSTON      PTCLDY    54  41  62 S9        29.81S
FOSSTON        CLEAR     54  39  58 SE9       29.85S
DETROIT LAKES  CLEAR     55  39  54 S6        29.89R
MOORHEAD       CLEAR     61  30  31 S9        29.85S
PARK RAPIDS    CLEAR     51  37  58 S8        29.88S
MAHNOMEN       FAIR      51  40  65 S8        29.85R
$$
MNZ006-009>011-018-025>026-240200-
   North Central Minnesota

CITY           SKY/WX    TMP DP  RH WIND       PRES   REMARKS
BAUDETTE       PTCLDY    51  37  58 S5        29.82S
FLAG ISLAND    PTCLDY    54  43  66 SW5       29.79S
INTL FALLS     CLEAR     44  35  70 CALM      29.84S
WASKISH        CLEAR     43  39  87 CALM      29.85S
BIG FORK       MOCLDY    50  41  71 CALM      29.88S
LONGVILLE      CLEAR     45  39  81 S5        29.89S
GRAND RAPIDS   PTCLDY    54  43  66 S8        29.90S
CRANE LAKE     CLEAR     52  48  87 S3        29.89S
ORR            CLEAR     52  45  76 SE6       29.86S
COOK           PTCLDY    52  48  87 SE6       29.90S
WALKER         FAIR      57  36  45 CALM      29.88S
$$
MNZ012-019>021-037-240200-
   Northeast Minnesota

CITY           SKY/WX    TMP DP  RH WIND       PRES   REMARKS
DULUTH         PTCLDY    51  47  86 S7        29.94S
ELY            CLEAR     48  45  87 S6        29.92R
HIBBING        FAIR      47  44  90 SE5       29.90S
EVELETH        FOG       43  41  93 CALM      29.92S VSB 1
DULUTH HARBOR  CLEAR     54  48  82 CALM      29.95S
TWO HARBORS    FAIR      46  36  66 CALM      29.93S HAZE
SILVER BAY     FOG       43  43 100 CALM      29.93F VSB 1/2
GRAND MARAIS     N/A     48  46  93 CALM      29.95S
G MARAIS ARPRT MIX PCPN  43  41  93 S6        29.95R VSB 1/4
$$
MNZ029>031-032-039>041-046>048-054>057-064-240200-
   West Central Minnesota

CITY           SKY/WX    TMP DP  RH WIND       PRES   REMARKS
FERGUS FALLS   CLEAR     52  36  54 S8        29.90R
WHEATON        CLEAR     54  43  66 S9        29.91S
MORRIS         CLEAR     52  43  71 S7        29.91R
ALEXANDRIA     CLEAR     55  42  61 S9        29.94R
ELBOW LAKE     FAIR      51  41  68 S8        29.91R
WADENA         CLEAR     52  43  71 S7        29.90S
GLENWOOD       CLEAR     52  43  71 S6        29.94R
APPLETON       CLEAR     57  39  51 S6        29.92R
BENSON         CLEAR     54  39  58 S5        29.93R
ORTONVILLE     CLEAR     57  39  51 S3        29.91S
MADISON        PTCLDY    57  41  54 S7        29.93R
WILLMAR        FAIR      52  39  62 S5        29.95S
$$
MNZ033>034-036-042>043-049>051-058-059-240200-
   Central Minnesota

CITY           SKY/WX    TMP DP  RH WIND       PRES   REMARKS
ST CLOUD       CLEAR     52  41  66 SE6       29.94S
SAUK CENTRE    FAIR      51  41  68 SE3       29.94R
PAYNESVILLE    CLEAR     52  38  60 SE6       29.94S
AITKIN         CLEAR     52  45  76 S6        29.91S
PINE RIVER     CLEAR     48  39  71 CALM      29.94S
BRAINERD       CLEAR     50  37  61 CALM      29.92S
STAPLES        CLEAR     52  37  58 S6        29.91S
LONG PRAIRIE   FAIR      50  37  62 SE5       29.93S
LITTLE FALLS   CLEAR     50  37  62 CALM      29.94R
LITCHFIELD     CLEAR     54  45  71 CALM      29.96S
BUFFALO        CLEAR     50  43  76 CALM      29.96S
MAPLE LAKE     CLEAR     49  44  82 CALM      29.95F
$$
MNZ037-044-045-052-053-240200-
   East Central Minnesota

CITY           SKY/WX    TMP DP  RH WIND       PRES   REMARKS
PRINCETON      FAIR      50  46  87 CALM      29.95S
MORA           CLEAR     45  43  93 CALM      29.96F
CAMBRIDGE      CLEAR     57  46  67 CALM      29.94S
RUSH CITY      MOCLDY    55  50  85 S6        29.96S
MOOSE LAKE     PTCLDY    50  46  87 CALM      29.92S
HINCKLEY       FAIR      54  52  94 SE5       29.95S
CLOQUET        PTCLDY    52  46  82 S3        29.94S
MCGREGOR       PTCLDY    52  45  76 S5        29.92S
$$
MNZ071>073-080-081-089-090-097-098-240200-
   Southwest Minnesota

CITY           SKY/WX    TMP DP  RH WIND       PRES   REMARKS
MONTEVIDEO     CLEAR     59  43  55 SW8       29.94S
GRANITE FALLS  CLEAR     51  43  76 S9        29.96R
CANBY          PTCLDY    57  43  58 S6        29.95R
MARSHALL       FAIR      55  43  62 S8        29.95R
REDWOOD FALLS  CLEAR     55  40  56 SW10      29.95S
OLIVIA         CLEAR     54  41  62 S6        29.95R
PIPESTONE      CLEAR     54  45  71 S7        29.97S
WINDOM         CLEAR     55  43  62 S3        29.99S
WORTHINGTON    CLEAR     55  43  62 S7        30.00R
JACKSON        CLEAR     54  41  62 S6        30.00S
TRACY          CLEAR     59  44  56 S9        29.97R
SLAYTON        CLEAR     53  44  70 S3        29.99R
$$
MNZ065>067-074>077-082>085-091>093-240200-
   South Central Minnesota

CITY           SKY/WX    TMP DP  RH WIND       PRES   REMARKS
MANKATO        CLEAR     55  36  47 SE6       29.98S
NEW ULM        CLEAR     55  43  62 S5        29.97S
ST JAMES       CLEAR     55  36  47 S6        29.99S
FAIRMONT       CLEAR     52  34  50 SW5       30.00R
GLENCOE        CLEAR     52  44  74 SE3       29.95F
FARIBAULT      CLEAR     45  39  81 CALM      29.99S
OWATONNA       CLEAR     52  45  76 SE8       30.00R
WASECA         CLEAR     48  37  66 SE6       30.01R
ALBERT LEA     CLEAR     54  48  82 CALM      30.01R
$$
MNZ078>079-086>088-094>096-240200-
   Southeast Minnesota

CITY           SKY/WX    TMP DP  RH WIND       PRES   REMARKS
ROCHESTER      FAIR      49  48  97 S8        30.03R FOG
RED WING       CLEAR     50  48  93 E3        30.00S FOG
STANTON        CLEAR     54  50  86 CALM      29.98S
DODGE CENTER   CLEAR     50  48  93 SE6       30.01S
WINONA         CLOUDY    52  50  93 SE3       30.03S FOG
AUSTIN         CLEAR     52  50  93 SE5       30.02R
PRESTON        CLEAR     47  46  96 S6        30.04R FOG
$$
ABBREVIATIONS USED IN REMARKS
   TC - TEMPERATURES IN CELSIUS
  WCI - WIND CHILL INDEX
   HX - HEAT INDEX
  VSB - VISIBILITY
$$



USA.gov is the U.S. government's official web portal to all federal, state and local government web resources and services.